Back to catalog

COSMOS 2499 DEB

LostPO
NORAD 56569·DEBRIS·🇷🇺 Russia

Launched May 23, 2014 from Plesetsk Cosmodrome

Loading…

Next Passes (next 24 hours)

TLE

StaleSource: Space-Track

Epoch: Aug 6, 2026, 13:37 UTC

1 56569U 14028BC  26218.56802814  .00000880  00000-0  22661-2 0  9994
2 56569  82.2678 167.5918 0043875  48.3203 312.1660 13.16361727169068

Track COSMOS 2499 DEB in real time with AllMySat

Download on the App Store